Starlink 32879

operational
NORAD ID: 62957 Int'l Des: 2025-029 Owner: SPXS Country: US Constellation: starlink
LEOCIRCULAR

Starlink 32879について

説明を読み込み中...

リアルタイム位置

3D地球を読み込み中...

次回通過

高度履歴

Altitude vs Time

uPlot chart will show altitude changes over time

軌道要素

1 62957U 25029K 26035.24114739 .00026872 00000-0 91609-3 0 9997
2 62957 53.1614 28.0253 0001213 79.7555 280.3583 15.30201479 56198
Epoch: Feb 4, 2026 • Age: 16 hours

現在のステータス

高度 479.7 km
速度 7.63 km/s
衛星直下点 48.39°N, 19.56°W
打ち上げ日 Feb 11, 2025
運用期間 0.9 years
タイプ internet

技術仕様

分類 Payload
質量 730.00 kg
乾燥質量 700.00 kg
総質量 730.00 kg
長さ 0.30 m
直径 4.10 m
スパン 29.00 m
形状 Box + pan
製造者 SPXS
バスタイプ Starlink V2M
フェーズステータス In Orbit
所有者/国 SPXS/US

大規模コンステレーション

Loading constellations...